Regional Weather Roundup
Issued by NWS Newport/Morehead, NC

Current Version | Previous Version | Graphics & Text | Print | Product List | Glossary Off
Versions: 1 2 3 4 5 6 7 8 9 10 11 12 13 14 15 16 17 18 19 20 21 22 23 24 25 26 27 28 29 30 31 32 33 34 35 36 37 38 39 40 41 42 43 44 45 46 47 48 49 50

255
ASUS42 KMHX 011213
RWRMHX
WEATHER ROUNDUP FOR EASTERN NORTH CAROLINA
NATIONAL WEATHER SERVICE NEWPORT/MOREHEAD CITY NC
800 AM EDT SUN MAY 01 2016

NOTE: "FAIR" INDICATES FEW OR NO CLOUDS BELOW 12,000 FEET
WITH NO SIGNIFICANT WEATHER AND/OR OBSTRUCTIONS TO VISIBILITY

NCZ015>017-031-032-045>047-102-103-011300-
NORTH COAST

CITY           SKY/WX    TMP DP  RH WIND       PRES   REMARKS
EDENTON        PTSUNNY   59  59 100 CALM      30.13F
ELIZABETH CITY CLOUDY    58  55  90 E5        30.13S
KITTY HAWK     CLOUDY    60  57  90 E3        30.12S
MANTEO         NOT AVBL

$$

NCZ045>047-081-094-103-104-011300-
CENTRAL COAST

CITY           SKY/WX    TMP DP  RH WIND       PRES   REMARKS
FRISCO         CLOUDY    66  61  84 E5        30.12F
SWANQUARTER    NOT AVBL

$$

NCZ095-097-098-100-101-011300-
SOUTHERN COAST

CITY           SKY/WX    TMP DP  RH WIND       PRES   REMARKS
BEAUFORT       PTSUNNY   65  63  93 E5        30.10F
CEDAR ISLAND   NOT AVBL
JACKSONVILLE   CLOUDY    64  61  90 E7        30.09F
PINEY ISLAND   NOT AVBL
WILMINGTON     CLOUDY    67  65  93 CALM      30.09S


$$

NCZ011>013-027>030-043-044-078>080-089-090>093-098-011300-
COASTAL PLAIN

CITY           SKY/WX    TMP DP  RH WIND       PRES   REMARKS
AHOSKIE        CLOUDY    55  53  91 CALM      30.13R
CLINTON        CLOUDY    61  61 100 CALM      30.11R FOG
ELIZABETHTOWN  CLOUDY    63  63 100 CALM      30.11R FOG
GOLDSBORO      CLOUDY    61  61 100 E3        30.10R
GREENVILLE     CLOUDY    57  55  94 CALM      30.13R
HAVELOCK       PTSUNNY   65  62  90 SE5       30.11F
KENANSVILLE    CLOUDY    60  59  97 CALM      30.12R FOG
KINSTON        CLOUDY    61  57  88 E3        30.12S
NEW BERN       CLOUDY    63  58  83 NE3       30.12S
RICHLANDS      CLOUDY    62  61  96 NE5       30.11S FOG
ROCKY MOUNT    CLOUDY    58  56  93 E5        30.12R FOG
WASHINGTON     CLOUDY    57  54  91 E5        30.12R
WHITEVILLE     MOSUNNY   67  64  91 CALM      30.08R

$$

AMZ130-135-150-152-154-156-158-170-250-252-270-ANZ085-086-088-633-658-670-011300-
MARINE OBSERVATIONS

STATION/POSITION TIME  TEMP    WIND        PRES    WAVE   SWELL
                       AIR SEA DIR/SP/G            HT/PER HT/PER
                 (UTC) (F)     (DEG/KT/KT) (MB)    (FT/S) (FT/S)
CHESAPEAKE LIGHT 1200   54      60/ 10/ 10 1021.6
64 E VA BEACH    1150   56 53   70/  6/  8 1020.6    6/10   5/10
DUCK             1100   57 66   60/  5/  6 1020.0
2 E DUCK         1111      59                N/A     4/11   2/11
OREGON INLET     1100   59 61   70/  6/  9 1020.1
13E OREGON INLT  1200      56                N/A     6/10   5/10
HATTERAS CG      1100   64 67   70/  2/  2 1019.8
DIAMOND BUOY     1150   72 73  180/ 12/ 14 1020.1    4/ 9   3/ 9
CAPE LOOKOUT     1200   68     160/  7/  8 1019.1
BEAUFORT LAB     1100   62 66   80/  2/  3 1018.8
30 SE NEW RVR IN 1125      68                N/A     4/10   2/11
27 SE WRIGHTSVLE 1108   73 71  180/ 12/ 16 1018.5
5 SE WRIGHTSVLE  1108   69 67  180/  6/  8 1019.6
225 S CAPE HAT   1150   71     100/ 10/ 12 1020.3    5/12   5/12
41 SE CHARLESTON 1150   74 72  140/ 16/ 19 1017.3    6/ 5   2/ 8

$$




USA.gov is the U.S. government's official web portal to all federal, state and local government web resources and services.